[[{"header":{"parameterUnit":"m.s-1","parameterCategory":1,"la1":30.2991,"la2":30.254,"lo1":-89.0895,"lo2":-89.0444,"dy":0.0017,"dx":0.0017,"nx":28,"ny":28,"refTime":"2026-02-12T03:00:00:Z","depth":0,"parameterNumber":2,"parameterNumberName":"U-component_of_WINDS"},"data":[0,0,0,0,0,0,0,0,0,0,0,0,0,0,0,0,0,0,0,0,0,0,0,0,0,0,0,0,0,0,0,0,0,0,0,0,0,0,0,0,0,0,0,0,0,0,0,0,0,0,0,0,0,0,0,0,0,0,-1.3395,-1.3394,0,-1.3362,-1.3361,-1.3361,-1.3312,-1.3312,-1.3311,-1.331,-1.3276,-1.3276,-1.3276,0,0,0,0,0,0,0,0,0,0,0,0,0,-1.3417,-1.3417,-1.3395,-1.3394,-1.3394,-1.3362,-1.3361,-1.3361,-1.3313,-1.3312,-1.3311,-1.331,-1.3276,-1.3276,-1.3276,0,0,0,0,0,0,0,0,0,0,0,0,0,-1.3398,-1.3416,-1.3395,-1.3366,-1.3363,-1.3362,-1.3361,-1.3361,-1.3313,-1.3312,-1.331,-1.3309,-1.3276,-1.3276,-1.3276,-1.33,0,0,-1.3275,-1.3275,0,0,0,0,0,0,0,0,-1.3399,-1.3397,-1.3371,-1.3368,-1.3365,-1.334,-1.3357,-1.334,-1.3313,-1.3332,-1.331,-1.3308,-1.3298,-1.3296,-1.3293,-1.3299,-1.3297,-1.3275,-1.3275,-1.3275,-1.3275,0,0,0,0,0,0,0,-1.34,-1.3398,-1.3382,-1.337,-1.3367,-1.3355,-1.3351,-1.3353,-1.3323,-1.333,-1.3327,-1.3323,-1.3296,-1.3293,-1.3292,-1.3297,-1.3275,-1.3275,-1.3275,-1.3275,-1.3322,-1.3323,0,0,0,0,0,0,-1.3406,-1.34,-1.3383,-1.3381,-1.3379,-1.3356,-1.3351,-1.3349,-1.3322,-1.3317,-1.3324,-1.3321,-1.3294,-1.3292,-1.329,-1.3318,-1.3275,-1.3275,-1.3275,-1.3321,-1.3322,-1.3324,0,0,0,0,0,0,-1.3406,-1.3405,-1.3384,-1.3389,-1.3386,-1.3356,-1.3355,-1.3349,-1.3346,-1.3318,-1.3312,-1.3327,-1.3293,-1.3291,-1.3298,-1.3316,-1.3275,-1.3275,-1.3319,-1.3321,-1.3323,-1.3373,0,0,0,0,0,0,-1.3407,-1.3405,-1.3414,-1.339,-1.3385,-1.3392,-1.3356,-1.3349,-1.3346,-1.3341,-1.3319,-1.3314,-1.3292,-1.3299,-1.3298,-1.3315,-1.3275,-1.3318,-1.332,-1.3323,-1.3369,-1.3376,-1.3382,0,0,0,0,0,-1.3408,-1.3429,-1.3415,-1.3413,-1.3396,-1.3393,-1.3391,-1.3365,-1.3347,-1.3356,-1.3338,-1.3314,-1.3314,-1.33,-1.3299,-1.3316,-1.3316,-1.3319,-1.3322,-1.3366,-1.3375,-1.3382,0,0,0,0,0,0,-1.3455,-1.3425,-1.3409,-1.3422,-1.3411,-1.3385,-1.3395,-1.3375,-1.3368,-1.3364,-1.3333,-1.3328,-1.334,-1.3329,-1.3314,-1.3339,-1.3312,-1.3315,-1.3346,-1.3353,-1.336,-1.3362,-1.3274,0,0,0,0,0,-1.3468,-1.3468,-1.3442,-1.3456,-1.3451,-1.3425,-1.3423,-1.3404,-1.3391,-1.3386,-1.3369,-1.3357,-1.3354,-1.3353,-1.3349,-1.3368,-1.3363,-1.3379,-1.3385,-1.3391,-1.3393,-1.3403,-1.341,-1.3334,-1.3334,-1.3334,0,0,-1.3492,-1.3476,-1.3478,-1.3465,-1.3454,-1.3456,-1.3421,-1.3424,-1.3425,-1.3386,-1.3393,-1.338,-1.3365,-1.3379,-1.3384,-1.3369,-1.3414,-1.3394,-1.3399,-1.3399,-1.3407,-1.3415,-1.3421,-1.3336,-1.3336,-1.3335,0,0,-1.3538,-1.3526,-1.3537,-1.3527,-1.3511,-1.3493,-1.3496,-1.3474,-1.3464,-1.347,-1.3441,-1.3443,-1.3438,-1.3429,-1.3424,-1.3468,-1.3447,-1.3468,-1.3501,-1.3511,-1.3517,-1.3522,-1.3539,-1.3545,-1.3471,-1.3471,-1.3471,0,-1.3571,-1.3572,-1.3545,-1.355,-1.3546,-1.3511,-1.3523,-1.3514,-1.3498,-1.3496,-1.348,-1.3475,-1.3463,-1.3474,-1.3485,-1.3482,-1.3485,-1.347,-1.3518,-1.3523,-1.3528,-1.3543,-1.3549,-1.3474,-1.3474,-1.3473,-1.3473,0,-1.3614,-1.3615,-1.3626,-1.3612,-1.3608,-1.3617,-1.3591,-1.3591,-1.3573,-1.3558,-1.3565,-1.3549,-1.3542,-1.3543,-1.3525,-1.3553,-1.3544,-1.3524,-1.3496,-1.3538,-1.3552,-1.3558,-1.3478,-1.3477,-1.3476,-1.3475,0,0,-1.3688,-1.3659,-1.3663,-1.3657,-1.3637,-1.3638,-1.3645,-1.3638,-1.364,-1.363,-1.3635,-1.3634,-1.3615,-1.3609,-1.359,-1.3599,-1.3637,-1.3578,-1.3577,-1.359,-1.3666,-1.3682,-1.3689,-1.3622,-1.3623,-1.3624,-1.3668,0,-1.373,-1.374,-1.3717,-1.3733,-1.3735,-1.3703,-1.3709,-1.3698,-1.3684,-1.3684,-1.3668,-1.3668,-1.3643,-1.3639,-1.3647,-1.3631,-1.3652,-1.3627,-1.3628,-1.3628,-1.3632,-1.3696,-1.3712,-1.3755,-1.3673,-1.3674,-1.3675,0,-1.378,-1.3774,-1.3791,-1.3771,-1.3771,-1.3777,-1.377,-1.3769,-1.3757,-1.3746,-1.3741,-1.3719,-1.3725,-1.3699,-1.3708,-1.3692,-1.369,-1.3683,-1.3684,-1.3683,-1.3654,-1.3697,-1.3767,-1.3774,-1.3683,-1.3682,-1.3682,0,-1.3834,-1.3829,-1.3838,-1.3834,-1.3811,-1.3817,-1.3807,-1.3794,-1.3791,-1.3785,-1.3783,-1.3778,-1.3775,-1.3771,-1.3749,-1.3732,-1.3761,-1.3732,-1.3752,-1.3753,-1.376,-1.3759,-1.3831,-1.3759,-1.3759,-1.3759,-1.3759,0,-1.3883,-1.3895,-1.3862,-1.3868,-1.3881,-1.3854,-1.3867,-1.3854,-1.3843,-1.3846,-1.3818,-1.3822,-1.3792,-1.3793,-1.3776,-1.3786,-1.3785,-1.3777,-1.3772,-1.378,-1.3781,-1.3778,-1.3775,-1.376,-1.376,-1.376,-1.3759,0,-1.3945,-1.3923,-1.3931,-1.391,-1.3905,-1.3915,-1.3896,-1.3902,-1.3886,-1.3891,-1.3891,-1.3866,-1.3866,-1.3844,-1.3839,-1.3827,-1.3845,-1.3835,-1.3849,-1.3846,-1.3868,-1.3866,-1.394,-1.3949,-1.3871,-1.3872,-1.3873,0,-1.3978,-1.3986,-1.3966,-1.3966,-1.3959,-1.3959,-1.3957,-1.3931,-1.393,-1.3917,-1.3924,-1.3922,-1.3918,-1.392,-1.3902,-1.3898,-1.3888,-1.3914,-1.3887,-1.3895,-1.3889,-1.3889,-1.389,-1.392,-1.3921,-1.3921,-1.3922,0,-1.404,-1.4029,-1.4027,-1.4021,-1.402,-1.4014,-1.4007,-1.4009,-1.398,-1.3981,-1.398,-1.3978,-1.3973,-1.3972,-1.3965,-1.3956,-1.3935,-1.3931,-1.3935,-1.3943,-1.3951,-1.3948,-1.3865,-1.3929,-1.3928,-1.3928,-1.3928,-1.3927,-1.4088,-1.4095,-1.4082,-1.408,-1.4072,-1.4066,-1.407,-1.4056,-1.4055,-1.4049,-1.4034,-1.4036,-1.4025,-1.4013,-1.4006,-1.4008,-1.3995,-1.4002,-1.4003,-1.4005,-1.401,-1.3951,-1.4007,-1.4007,-1.4006,-1.4006,-1.4006,0,-1.4149,-1.414,-1.4139,-1.413,-1.4129,-1.4109,-1.4101,-1.4102,-1.4104,-1.4095,-1.4092,-1.4092,-1.4091,-1.4073,-1.407,-1.4075,-1.4065,-1.4075,-1.4074,-1.4073,-1.4021,-1.4018,-1.4083,-1.4083,-1.4083,-1.4083,-1.4083,-1.4083,-1.4181,-1.4191,-1.4179,-1.4185,-1.4175,-1.4177,-1.4174,-1.4169,-1.4161,-1.4163,-1.4161,-1.415,-1.4138,-1.4133,-1.4131,-1.4126,-1.4127,-1.414,-1.4132,-1.4084,-1.4076,-1.4069,-1.4066,-1.414,-1.414,-1.4183,-1.4183,-1.4184]},{"header":{"parameterUnit":"m.s-1","parameterCategory":1,"la1":30.2991,"la2":30.254,"lo1":-89.0895,"lo2":-89.0444,"dy":0.0017,"dx":0.0017,"nx":28,"ny":28,"refTime":"2026-02-12T03:00:00:Z","depth":0,"parameterNumber":3,"parameterNumberName":"V-component_of_WINDS"},"data":[0,0,0,0,0,0,0,0,0,0,0,0,0,0,0,0,0,0,0,0,0,0,0,0,0,0,0,0,0,0,0,0,0,0,0,0,0,0,0,0,0,0,0,0,0,0,0,0,0,0,0,0,0,0,0,0,0,0,2.1626,2.1626,0,2.1634,2.1634,2.1635,2.1645,2.1646,2.1646,2.1646,2.1651,2.1651,2.1651,0,0,0,0,0,0,0,0,0,0,0,0,0,2.1618,2.1619,2.1626,2.1626,2.1627,2.1634,2.1634,2.1635,2.1645,2.1646,2.1646,2.1646,2.1651,2.1651,2.1651,0,0,0,0,0,0,0,0,0,0,0,0,0,2.1624,2.1619,2.1626,2.1633,2.1634,2.1634,2.1634,2.1635,2.1645,2.1646,2.1646,2.1646,2.1651,2.1651,2.1651,2.1645,0,0,2.1651,2.1651,0,0,0,0,0,0,0,0,2.1623,2.1624,2.1632,2.1633,2.1633,2.1639,2.1634,2.1638,2.1645,2.1641,2.1646,2.1646,2.1647,2.1647,2.1648,2.1646,2.1646,2.1651,2.1651,2.1651,2.1651,0,0,0,0,0,0,0,2.1623,2.1624,2.1629,2.1632,2.1633,2.1635,2.1636,2.1635,2.1642,2.1641,2.1642,2.1643,2.1647,2.1648,2.1648,2.1646,2.1651,2.1651,2.1651,2.1651,2.164,2.164,0,0,0,0,0,0,2.1622,2.1623,2.1629,2.163,2.1629,2.1635,2.1636,2.1637,2.1642,2.1643,2.1643,2.1643,2.1648,2.1648,2.1648,2.1643,2.1651,2.1651,2.1651,2.164,2.164,2.1639,0,0,0,0,0,0,2.1622,2.1622,2.1629,2.1627,2.1628,2.1635,2.1636,2.1637,2.1638,2.1643,2.1644,2.1642,2.1648,2.1648,2.1646,2.1643,2.1651,2.1651,2.164,2.164,2.164,2.163,0,0,0,0,0,0,2.1621,2.1622,2.162,2.1627,2.1628,2.1627,2.1635,2.1637,2.1638,2.1639,2.1643,2.1644,2.1648,2.1646,2.1646,2.1643,2.1651,2.1641,2.164,2.164,2.1631,2.163,2.1628,0,0,0,0,0,2.1621,2.1617,2.162,2.1621,2.1626,2.1627,2.1628,2.1634,2.1638,2.1636,2.1639,2.1644,2.1643,2.1646,2.1646,2.1643,2.1641,2.164,2.164,2.1631,2.163,2.1628,0,0,0,0,0,0,2.1609,2.1618,2.1622,2.1619,2.1623,2.1629,2.1627,2.1632,2.1633,2.1634,2.164,2.1641,2.1638,2.164,2.1643,2.1638,2.1643,2.1642,2.1636,2.1635,2.1634,2.1633,2.1651,0,0,0,0,0,2.1606,2.1607,2.1614,2.1611,2.1613,2.1619,2.162,2.1625,2.1628,2.1629,2.1632,2.1635,2.1635,2.1635,2.1636,2.1631,2.1632,2.1629,2.1628,2.1627,2.1626,2.1624,2.1623,2.1637,2.1637,2.1637,0,0,2.1599,2.1604,2.1604,2.1609,2.1612,2.1612,2.162,2.162,2.1621,2.1629,2.1627,2.163,2.1633,2.163,2.1629,2.1631,2.1622,2.1626,2.1625,2.1625,2.1624,2.1622,2.1621,2.1637,2.1637,2.1637,0,0,2.1588,2.1592,2.1591,2.1594,2.1599,2.1604,2.1603,2.1609,2.1612,2.1611,2.1617,2.1617,2.1617,2.162,2.1621,2.1612,2.1616,2.1611,2.1605,2.1603,2.1602,2.1601,2.1599,2.1597,2.1611,2.1611,2.1611,0,2.158,2.1582,2.1589,2.1589,2.1591,2.16,2.1598,2.16,2.1605,2.1606,2.1609,2.161,2.1613,2.1611,2.1609,2.1609,2.1609,2.1611,2.1602,2.1601,2.16,2.1598,2.1597,2.161,2.161,2.161,2.161,0,2.1571,2.1572,2.157,2.1576,2.1577,2.1576,2.1583,2.1584,2.1588,2.1592,2.1592,2.1595,2.1597,2.1597,2.16,2.1595,2.1597,2.1601,2.1606,2.1598,2.1596,2.1595,2.161,2.161,2.161,2.161,0,0,2.1552,2.1563,2.1562,2.1565,2.1571,2.1572,2.1571,2.1574,2.1575,2.1578,2.1577,2.1578,2.1582,2.1584,2.1588,2.1586,2.158,2.1591,2.1591,2.1589,2.1575,2.1572,2.1571,2.1583,2.1582,2.1582,2.1575,0,2.1542,2.1543,2.155,2.1549,2.155,2.1559,2.1558,2.1562,2.1566,2.1567,2.1571,2.1572,2.1577,2.1578,2.1577,2.1581,2.1577,2.1581,2.1582,2.1582,2.1581,2.1569,2.1566,2.1559,2.1574,2.1573,2.1573,0,2.1531,2.1535,2.1534,2.1542,2.1542,2.1542,2.1546,2.1547,2.1551,2.1554,2.1556,2.1561,2.1561,2.1566,2.1566,2.1569,2.1569,2.1571,2.1571,2.1571,2.1577,2.157,2.1556,2.1555,2.1572,2.1572,2.1572,0,2.1518,2.1523,2.1523,2.1525,2.1534,2.1534,2.1537,2.1542,2.1543,2.1546,2.1547,2.155,2.1551,2.1552,2.1558,2.1561,2.1557,2.1563,2.1559,2.1559,2.1558,2.1558,2.1545,2.1558,2.1558,2.1558,2.1558,0,2.1507,2.1506,2.1518,2.1518,2.1517,2.1525,2.1524,2.1528,2.1532,2.1533,2.154,2.154,2.1548,2.1549,2.1553,2.1552,2.1552,2.1555,2.1556,2.1554,2.1554,2.1555,2.1555,2.1558,2.1558,2.1558,2.1558,0,2.1492,2.15,2.1501,2.1509,2.1512,2.1511,2.1518,2.1518,2.1523,2.1523,2.1524,2.1531,2.1533,2.1539,2.1541,2.1544,2.1542,2.1544,2.1541,2.1542,2.1539,2.1539,2.1526,2.1525,2.1538,2.1538,2.1538,0,2.1485,2.1485,2.1494,2.1495,2.1499,2.1501,2.1503,2.1511,2.1513,2.1518,2.1518,2.152,2.1523,2.1525,2.153,2.1532,2.1534,2.153,2.1535,2.1533,2.1535,2.1535,2.1535,2.1529,2.1528,2.1528,2.1528,0,2.1471,2.1475,2.1478,2.1483,2.1486,2.149,2.1494,2.1494,2.1503,2.1505,2.1507,2.1509,2.1513,2.1515,2.1518,2.1521,2.1526,2.1527,2.1526,2.1524,2.1523,2.1524,2.1538,2.1527,2.1527,2.1527,2.1527,2.1527,2.146,2.1461,2.1467,2.1471,2.1475,2.1479,2.148,2.1485,2.1488,2.1492,2.1497,2.1499,2.1503,2.1508,2.1511,2.1512,2.1515,2.1514,2.1514,2.1513,2.1513,2.1523,2.1513,2.1513,2.1513,2.1513,2.1513,0,2.1447,2.1452,2.1455,2.1462,2.1464,2.147,2.1475,2.1477,2.1479,2.1483,2.1486,2.1489,2.1492,2.1497,2.15,2.15,2.1502,2.1501,2.1501,2.1501,2.151,2.1511,2.1499,2.1499,2.1499,2.1499,2.1499,2.1499,2.1441,2.1442,2.1447,2.145,2.1455,2.1458,2.1461,2.1464,2.1468,2.1472,2.1474,2.1478,2.1483,2.1487,2.1489,2.1491,2.1492,2.1489,2.1491,2.1499,2.1501,2.1502,2.1502,2.1489,2.1489,2.1482,2.1482,2.1482]}]]